Ontario, CA

1:24 AM PDT on October 22, 2017 (GMT -0700)
Ontario International

Weather History for KONT - November, 2013

Change the Weather History Date:

Sunday, November 17, 2013

  Actual Average Record
Temperature  
Mean Temperature 61 °F 59 °F  
Max Temperature 69 °F 72 °F 90 °F (2008)
Min Temperature 53 °F 47 °F 39 °F (2015)
Degree Days  
Heating Degree Days 4 6  
Month to date heating degree days 29 73  
Since 1 July heating degree days 72 118  
Cooling Degree Days 0 1  
Month to date cooling degree days 25 21  
Year to date cooling degree days 1997 1704  
Growing Degree Days 10 (Base 50)    
Moisture  
Dew Point 47 °F    
Average Humidity 61    
Maximum Humidity 83    
Minimum Humidity 39    
Precipitation  
Precipitation 0.00 in 0.04 in 0.04 in (2012)
Month to date precipitation T 0.75  
Year to date precipitation 3.03 12.26  
Since 1 July precipitation 0.24  
Snow  
Snow 0.00 in - - ()
Month to date snowfall 0.0  
Year to date snowfall 0.0  
Snow Depth 0.00 in    
Sea Level Pressure  
Sea Level Pressure 30.01 in    
Wind  
Wind Speed 3 mph (WSW)    
Max Wind Speed 7 mph    
Max Gust Speed 10 mph    
Visibility 10 miles    
Events      
T = Trace of Precipitation, MM = Missing Value Source: NWS Daily Summary

Daily Weather History Graph

Daily Weather History Graph

Search for Another Location

Airport or City:

Trip Planner

Search our weather history database for the weather conditions in past years. The results will help you decide how hot, cold, wet, or windy it might be!

Date:

Astronomy

Nov. 17, 2013 Rise Set
Actual Time 6:25 AM PST 4:45 PM PST
Civil Twilight 5:58 AM PST 5:12 PM PST
Nautical Twilight 5:28 AM PST 5:42 PM PST
Astronomical Twilight 4:58 AM PST 6:12 PM PST
Moon 5:05 PM PST (11/17) 6:24 AM PST (11/17)
Length of Visible Light 11h 13m
Length of Day
10h 20m
Full, 100% of the Moon is Illuminated
Nov 17
Full
Nov 25
Last Quarter
Dec 2
New
Dec 9
First Quarter
Dec 17
Full

Hourly Weather History & Observations

Time (PST) Temp. Dew Point Humidity Pressure Visibility Wind Dir Wind Speed Gust Speed Precip Events Conditions
12:53 AM 57.0 °F 48.0 °F 72% 29.94 in 10.0 mi West 3.5 mph - N/A   Overcast
1:53 AM 57.0 °F 48.0 °F 72% 29.94 in 10.0 mi West 3.5 mph - N/A   Overcast
2:53 AM 57.0 °F 48.0 °F 72% 29.94 in 10.0 mi Calm Calm - N/A   Overcast
3:53 AM 57.0 °F 48.0 °F 72% 29.94 in 10.0 mi Calm Calm - N/A   Overcast
4:53 AM 57.0 °F 48.0 °F 72% 29.95 in 10.0 mi Calm Calm - N/A   Overcast
5:53 AM 55.0 °F 46.9 °F 74% 29.96 in 10.0 mi Calm Calm - N/A   Scattered Clouds
6:53 AM 53.1 °F 48.0 °F 83% 29.98 in 10.0 mi Calm Calm - N/A   Partly Cloudy
7:53 AM 57.9 °F 48.0 °F 70% 30.01 in 10.0 mi ENE 4.6 mph - N/A   Partly Cloudy
8:53 AM 59.0 °F 48.0 °F 67% 30.03 in 10.0 mi Calm Calm - N/A   Partly Cloudy
9:53 AM 61.0 °F 46.9 °F 60% 30.04 in 10.0 mi NW 3.5 mph - N/A   Partly Cloudy
10:53 AM 63.0 °F 45.0 °F 52% 30.04 in 10.0 mi Variable 3.5 mph - N/A   Partly Cloudy
11:53 AM 64.9 °F 45.0 °F 48% 30.01 in 10.0 mi WNW 4.6 mph - N/A   Partly Cloudy
12:53 PM 66.0 °F 43.0 °F 43% 29.99 in 10.0 mi Calm Calm - N/A   Partly Cloudy
1:53 PM 68.0 °F 43.0 °F 40% 29.98 in 10.0 mi SSW 4.6 mph - N/A   Partly Cloudy
2:53 PM 68.0 °F 44.1 °F 42% 29.98 in 10.0 mi SSW 5.8 mph - N/A   Partly Cloudy
3:53 PM 66.9 °F 44.1 °F 44% 29.97 in 10.0 mi WSW 4.6 mph - N/A   Scattered Clouds
4:53 PM 64.9 °F 46.9 °F 52% 29.99 in 10.0 mi WSW 8.1 mph - N/A   Scattered Clouds
5:53 PM 62.1 °F 50.0 °F 65% 30.01 in 10.0 mi WSW 8.1 mph - N/A   Scattered Clouds
6:53 PM 60.1 °F 48.9 °F 67% 30.04 in 10.0 mi WSW 6.9 mph - N/A   Scattered Clouds
7:53 PM 57.0 °F 48.0 °F 72% 30.05 in 10.0 mi West 3.5 mph - N/A   Partly Cloudy
8:53 PM 57.0 °F 48.9 °F 74% 30.06 in 10.0 mi Calm Calm - N/A   Partly Cloudy
9:53 PM 55.0 °F 48.9 °F 80% 30.08 in 10.0 mi Calm Calm - N/A   Clear
10:47 PM 55.4 °F 48.2 °F 77% 30.09 in 10.0 mi Calm Calm - N/A   Partly Cloudy
10:53 PM 54.0 °F 48.0 °F 80% 30.08 in 10.0 mi Calm Calm - N/A   Partly Cloudy
11:53 PM 54.0 °F 48.9 °F 83% 30.08 in 10.0 mi Calm Calm - N/A   Clear